Time,TemperatureF,DewpointF,PressureIn,WindDirection,WindDirectionDegrees,WindSpeedMPH,WindSpeedGustMPH,Humidity,HourlyPrecipIn,Conditions,Clouds,dailyrainin,SoftwareType,DateUTC
2013-02-04 06:24:00,60.6,18.2,25.42,South,180,5.8,5.8,19,0.00,,---,0.00,VWS V14.01,2013-02-04 12:24:00,
2013-02-04 06:29:00,60.6,18.2,25.37,SW,225,7.6,7.6,19,0.00,,---,0.00,VWS V14.01,2013-02-04 12:29:00,
2013-02-04 06:34:00,51.4,21.1,25.37,SW,225,12.3,12.3,30,0.00,,---,0.00,VWS V14.01,2013-02-04 12:34:00,
2013-02-04 06:39:00,51.8,20.6,25.37,SW,225,8.7,8.7,29,0.00,,---,0.00,VWS V14.01,2013-02-04 12:39:00,
2013-02-04 06:44:00,52.2,20.9,25.37,WSW,248,8.7,8.7,29,0.00,,---,0.00,VWS V14.01,2013-02-04 12:44:00,
2013-02-04 06:49:00,53.1,20.8,25.37,SW,225,12.5,18.1,28,0.00,,---,0.00,VWS V14.01,2013-02-04 12:49:00,
2013-02-04 06:54:00,53.4,21.1,25.37,SW,225,10.5,10.7,28,0.00,,---,0.00,VWS V14.01,2013-02-04 12:54:00,
2013-02-04 06:59:00,53.2,21.0,25.37,SW,225,6.5,8.7,28,0.00,,---,0.00,VWS V14.01,2013-02-04 12:59:00,
2013-02-04 07:04:00,53.1,20.0,25.37,SW,225,7.4,7.4,27,0.00,,---,0.00,VWS V14.01,2013-02-04 13:04:00,
2013-02-04 07:09:00,53.1,20.0,25.37,SSW,202,6.0,6.0,27,0.00,,---,0.00,VWS V14.01,2013-02-04 13:09:00,
2013-02-04 07:14:00,52.7,19.7,25.37,WSW,248,13.9,13.9,27,0.00,,---,0.00,VWS V14.01,2013-02-04 13:14:00,
2013-02-04 07:19:00,53.4,20.3,25.37,WSW,248,7.4,7.4,27,0.00,,---,0.00,VWS V14.01,2013-02-04 13:19:00,
2013-02-04 07:24:00,53.1,20.0,25.37,WSW,248,5.8,5.8,27,0.00,,---,0.00,VWS V14.01,2013-02-04 13:24:00,
2013-02-04 07:29:00,53.1,20.0,25.37,SW,225,10.3,10.3,27,0.00,,---,0.00,VWS V14.01,2013-02-04 13:29:00,
2013-02-04 07:34:00,52.9,19.8,25.37,SW,225,8.5,8.5,27,0.00,,---,0.00,VWS V14.01,2013-02-04 13:34:00,
2013-02-04 07:39:00,52.9,19.8,25.37,SW,225,7.6,7.8,27,0.00,,---,0.00,VWS V14.01,2013-02-04 13:39:00,
2013-02-04 07:44:00,52.9,19.8,25.37,SW,225,7.2,8.1,27,0.00,,---,0.00,VWS V14.01,2013-02-04 13:44:00,
2013-02-04 07:49:00,52.9,19.8,25.37,SW,225,9.8,10.7,27,0.00,,---,0.00,VWS V14.01,2013-02-04 13:49:00,
2013-02-04 07:54:00,52.5,19.5,25.37,SW,225,7.8,7.8,27,0.00,,---,0.00,VWS V14.01,2013-02-04 13:54:00,
2013-02-04 07:59:00,53.2,20.1,25.37,SW,225,6.9,7.8,27,0.00,,---,0.00,VWS V14.01,2013-02-04 13:59:00,
2013-02-04 08:04:00,54.0,19.9,25.37,SW,225,7.4,7.4,26,0.00,,---,0.00,VWS V14.01,2013-02-04 14:04:00,
2013-02-04 08:09:00,54.1,20.0,25.37,SW,225,9.6,9.6,26,0.00,,---,0.00,VWS V14.01,2013-02-04 14:09:00,
2013-02-04 08:14:00,54.3,20.2,25.37,SW,225,7.8,8.5,26,0.00,,---,0.00,VWS V14.01,2013-02-04 14:14:00,
2013-02-04 08:19:00,54.9,20.6,25.37,SW,225,9.2,9.2,26,0.00,,---,0.00,VWS V14.01,2013-02-04 14:19:00,
2013-02-04 08:24:00,55.4,20.2,25.37,SW,225,7.8,8.7,25,0.00,,---,0.00,VWS V14.01,2013-02-04 14:24:00,
2013-02-04 08:29:00,55.8,20.5,25.37,SW,225,9.6,9.6,25,0.00,,---,0.00,VWS V14.01,2013-02-04 14:29:00,
2013-02-04 08:34:00,57.2,21.7,25.37,WSW,248,10.1,10.3,25,0.00,,---,0.00,VWS V14.01,2013-02-04 14:34:00,
2013-02-04 08:39:00,57.9,22.3,25.37,WSW,248,10.1,12.3,25,0.00,,---,0.00,VWS V14.01,2013-02-04 14:39:00,
2013-02-04 08:44:00,57.9,22.3,25.37,SW,225,8.1,8.1,25,0.00,,---,0.00,VWS V14.01,2013-02-04 14:44:00,
2013-02-04 08:49:00,56.8,21.4,25.37,WSW,248,12.1,12.1,25,0.00,,---,0.00,VWS V14.01,2013-02-04 14:49:00,
2013-02-04 08:54:00,57.9,22.3,25.37,WSW,248,8.5,8.5,25,0.00,,---,0.00,VWS V14.01,2013-02-04 14:54:00,
2013-02-04 08:59:00,59.0,22.3,25.37,WSW,248,7.8,7.8,24,0.00,,---,0.00,VWS V14.01,2013-02-04 14:59:00,
2013-02-04 09:04:00,59.5,22.7,25.37,WSW,248,4.9,5.8,24,0.00,,---,0.00,VWS V14.01,2013-02-04 15:04:00,
2013-02-04 09:09:00,59.0,22.3,25.37,West,270,6.5,6.5,24,0.00,,---,0.00,VWS V14.01,2013-02-04 15:09:00,
2013-02-04 09:14:00,60.4,23.5,25.37,WSW,248,6.3,6.3,24,0.00,,---,0.00,VWS V14.01,2013-02-04 15:14:00,
2013-02-04 09:19:00,61.7,24.6,25.37,West,270,8.1,8.1,24,0.00,,---,0.00,VWS V14.01,2013-02-04 15:19:00,
2013-02-04 09:24:00,64.0,26.5,25.37,NW,315,8.7,8.7,24,0.00,,---,0.00,VWS V14.01,2013-02-04 15:24:00,
2013-02-04 09:29:00,64.0,26.5,25.37,NW,315,6.7,6.7,24,0.00,,---,0.00,VWS V14.01,2013-02-04 15:29:00,
2013-02-04 09:34:00,62.6,25.3,25.39,West,270,11.0,11.0,24,0.00,,---,0.00,VWS V14.01,2013-02-04 15:34:00,
2013-02-04 09:39:00,63.3,25.9,25.39,WNW,292,10.7,10.7,24,0.00,,---,0.00,VWS V14.01,2013-02-04 15:39:00,
2013-02-04 09:44:00,62.8,25.5,25.39,West,270,15.2,15.2,24,0.00,,---,0.00,VWS V14.01,2013-02-04 15:44:00,
2013-02-04 09:49:00,62.8,25.5,25.39,West,270,8.1,11.0,24,0.00,,---,0.00,VWS V14.01,2013-02-04 15:49:00,
2013-02-04 09:54:00,63.1,25.8,25.39,WSW,248,12.8,17.7,24,0.00,,---,0.00,VWS V14.01,2013-02-04 15:54:00,
2013-02-04 09:59:00,63.3,25.9,25.39,West,270,19.0,19.0,24,0.00,,---,0.00,VWS V14.01,2013-02-04 15:59:00,
2013-02-04 10:04:00,62.4,25.2,25.39,West,270,21.5,23.5,24,0.00,,---,0.00,VWS V14.01,2013-02-04 16:04:00,
2013-02-04 10:09:00,62.6,24.3,25.39,West,270,18.6,22.6,23,0.00,,---,0.00,VWS V14.01,2013-02-04 16:09:00,
2013-02-04 10:14:00,62.6,24.3,25.39,WSW,248,18.6,18.6,23,0.00,,---,0.00,VWS V14.01,2013-02-04 16:14:00,
2013-02-04 10:19:00,63.1,24.8,25.39,WNW,292,17.7,17.7,23,0.00,,---,0.00,VWS V14.01,2013-02-04 16:19:00,
2013-02-04 10:24:00,63.5,25.1,25.39,WNW,292,15.4,19.5,23,0.00,,---,0.00,VWS V14.01,2013-02-04 16:24:00,
2013-02-04 10:29:00,63.9,25.4,25.39,West,270,17.5,17.5,23,0.00,,---,0.00,VWS V14.01,2013-02-04 16:29:00,
2013-02-04 10:34:00,64.4,25.8,25.39,WNW,292,19.5,19.5,23,0.00,,---,0.00,VWS V14.01,2013-02-04 16:34:00,
2013-02-04 10:39:00,63.7,25.2,25.39,WNW,292,19.9,19.9,23,0.00,,---,0.00,VWS V14.01,2013-02-04 16:39:00,
2013-02-04 10:44:00,64.0,25.5,25.39,West,270,15.9,15.9,23,0.00,,---,0.00,VWS V14.01,2013-02-04 16:44:00,
2013-02-04 10:49:00,65.5,26.7,25.39,West,270,26.0,26.0,23,0.00,,---,0.00,VWS V14.01,2013-02-04 16:49:00,
2013-02-04 10:54:00,63.5,25.1,25.39,WNW,292,17.2,25.3,23,0.00,,---,0.00,VWS V14.01,2013-02-04 16:54:00,
2013-02-04 10:59:00,65.5,26.7,25.39,WNW,292,14.5,14.5,23,0.00,,---,0.00,VWS V14.01,2013-02-04 16:59:00,
2013-02-04 11:04:00,64.2,25.7,25.39,West,270,15.4,19.7,23,0.00,,---,0.00,VWS V14.01,2013-02-04 17:04:00,
2013-02-04 11:09:00,63.0,24.6,25.39,WNW,292,13.0,15.2,23,0.00,,---,0.00,VWS V14.01,2013-02-04 17:09:00,
2013-02-04 11:14:00,64.9,26.3,25.39,WNW,292,17.2,17.2,23,0.00,,---,0.00,VWS V14.01,2013-02-04 17:14:00,
2013-02-04 11:19:00,65.5,26.7,25.42,WNW,292,13.0,14.3,23,0.00,,---,0.00,VWS V14.01,2013-02-04 17:19:00,
2013-02-04 11:24:00,66.4,27.5,25.42,NW,315,11.0,15.2,23,0.00,,---,0.00,VWS V14.01,2013-02-04 17:24:00,
2013-02-04 11:29:00,66.2,27.3,25.42,West,270,15.4,15.4,23,0.00,,---,0.00,VWS V14.01,2013-02-04 17:29:00,
2013-02-04 11:34:00,65.7,26.9,25.39,WNW,292,12.3,12.3,23,0.00,,---,0.00,VWS V14.01,2013-02-04 17:34:00,
2013-02-04 11:39:00,66.9,27.9,25.39,NNW,338,14.1,14.1,23,0.00,,---,0.00,VWS V14.01,2013-02-04 17:39:00,
2013-02-04 11:44:00,66.4,26.4,25.39,NW,315,12.8,13.2,22,0.00,,---,0.00,VWS V14.01,2013-02-04 17:44:00,
2013-02-04 11:49:00,67.6,28.5,25.39,WNW,292,17.2,17.2,23,0.00,,---,0.00,VWS V14.01,2013-02-04 17:49:00,
2013-02-04 11:54:00,68.2,27.9,25.39,NNW,338,11.0,12.5,22,0.00,,---,0.00,VWS V14.01,2013-02-04 17:54:00,
2013-02-04 11:59:00,68.9,28.5,25.39,NNW,338,13.0,13.0,22,0.00,,---,0.00,VWS V14.01,2013-02-04 17:59:00,
2013-02-04 12:04:00,67.8,27.6,25.37,NNW,338,12.8,14.8,22,0.00,,---,0.00,VWS V14.01,2013-02-04 18:04:00,
2013-02-04 12:09:00,66.2,26.3,25.37,NW,315,15.9,20.6,22,0.00,,---,0.00,VWS V14.01,2013-02-04 18:09:00,
2013-02-04 12:14:00,64.9,26.3,25.37,WNW,292,16.8,16.8,23,0.00,,---,0.00,VWS V14.01,2013-02-04 18:14:00,
2013-02-04 12:19:00,66.2,27.3,25.37,NW,315,13.0,14.5,23,0.00,,---,0.00,VWS V14.01,2013-02-04 18:19:00,
2013-02-04 12:24:00,68.5,28.2,25.37,NW,315,17.0,17.0,22,0.00,,---,0.00,VWS V14.01,2013-02-04 18:24:00,
2013-02-04 12:29:00,66.7,26.7,25.37,WNW,292,9.8,9.8,22,0.00,,---,0.00,VWS V14.01,2013-02-04 18:29:00,
2013-02-04 12:34:00,67.1,27.0,25.37,WNW,292,18.1,18.1,22,0.00,,---,0.00,VWS V14.01,2013-02-04 18:34:00,
2013-02-04 12:39:00,67.6,27.5,25.37,WNW,292,18.6,19.5,22,0.00,,---,0.00,VWS V14.01,2013-02-04 18:39:00,
2013-02-04 12:44:00,68.2,27.9,25.37,NW,315,10.1,10.5,22,0.00,,---,0.00,VWS V14.01,2013-02-04 18:44:00,
2013-02-04 12:49:00,67.6,27.5,25.37,NW,315,11.2,11.2,22,0.00,,---,0.00,VWS V14.01,2013-02-04 18:49:00,
2013-02-04 12:54:00,68.0,27.8,25.37,West,270,15.4,15.9,22,0.00,,---,0.00,VWS V14.01,2013-02-04 18:54:00,
2013-02-04 12:59:00,66.9,26.9,25.37,WNW,292,12.3,12.3,22,0.00,,---,0.00,VWS V14.01,2013-02-04 18:59:00,
2013-02-04 13:04:00,66.7,26.7,25.37,WNW,292,14.1,14.1,22,0.00,,---,0.00,VWS V14.01,2013-02-04 19:04:00,
2013-02-04 13:09:00,66.2,26.3,25.37,WNW,292,12.1,14.3,22,0.00,,---,0.00,VWS V14.01,2013-02-04 19:09:00,
2013-02-04 13:14:00,67.6,27.5,25.37,WNW,292,10.1,12.1,22,0.00,,---,0.00,VWS V14.01,2013-02-04 19:14:00,
2013-02-04 13:19:00,67.8,27.6,25.37,WNW,292,15.4,15.4,22,0.00,,---,0.00,VWS V14.01,2013-02-04 19:19:00,
2013-02-04 13:24:00,68.5,28.2,25.37,WNW,292,15.9,15.9,22,0.00,,---,0.00,VWS V14.01,2013-02-04 19:24:00,
2013-02-04 13:29:00,69.1,28.7,25.37,WNW,292,12.3,12.3,22,0.00,,---,0.00,VWS V14.01,2013-02-04 19:29:00,
2013-02-04 13:34:00,68.5,28.2,25.34,West,270,15.2,15.2,22,0.00,,---,0.00,VWS V14.01,2013-02-04 19:34:00,
2013-02-04 13:39:00,68.5,28.2,25.34,West,270,10.5,10.5,22,0.00,,---,0.00,VWS V14.01,2013-02-04 19:39:00,
2013-02-04 13:44:00,67.8,27.6,25.34,WSW,248,17.5,29.1,22,0.00,,---,0.00,VWS V14.01,2013-02-04 19:44:00,
2013-02-04 13:49:00,66.9,26.9,25.34,SW,225,23.7,26.6,22,0.00,,---,0.00,VWS V14.01,2013-02-04 19:49:00,
2013-02-04 13:54:00,65.5,26.7,25.34,WSW,248,17.9,19.0,23,0.00,,---,0.00,VWS V14.01,2013-02-04 19:54:00,
2013-02-04 13:59:00,66.0,27.2,25.34,WSW,248,19.7,19.7,23,0.00,,---,0.00,VWS V14.01,2013-02-04 19:59:00,
2013-02-04 14:04:00,67.1,27.0,25.34,WSW,248,23.7,25.3,22,0.00,,---,0.00,VWS V14.01,2013-02-04 20:04:00,
2013-02-04 14:09:00,67.5,27.3,25.34,SW,225,20.1,20.1,22,0.00,,---,0.00,VWS V14.01,2013-02-04 20:09:00,
2013-02-04 14:14:00,66.7,26.7,25.34,West,270,17.0,21.9,22,0.00,,---,0.00,VWS V14.01,2013-02-04 20:14:00,
2013-02-04 14:19:00,68.0,27.8,25.34,WSW,248,15.9,17.5,22,0.00,,---,0.00,VWS V14.01,2013-02-04 20:19:00,
2013-02-04 14:24:00,67.6,27.5,25.34,WSW,248,26.2,26.2,22,0.00,,---,0.00,VWS V14.01,2013-02-04 20:24:00,
2013-02-04 14:29:00,68.4,28.1,25.34,WSW,248,21.0,21.0,22,0.00,,---,0.00,VWS V14.01,2013-02-04 20:29:00,
2013-02-04 14:34:00,67.3,27.2,25.31,WSW,248,27.5,27.5,22,0.00,,---,0.00,VWS V14.01,2013-02-04 20:34:00,
2013-02-04 14:39:00,68.2,27.9,25.31,WSW,248,21.5,21.5,22,0.00,,---,0.00,VWS V14.01,2013-02-04 20:39:00,
2013-02-04 14:44:00,67.8,27.6,25.31,West,270,23.3,23.3,22,0.00,,---,0.00,VWS V14.01,2013-02-04 20:44:00,
2013-02-04 14:49:00,68.2,25.6,25.34,West,270,22.8,23.0,20,0.00,,---,0.00,VWS V14.01,2013-02-04 20:49:00,
2013-02-04 14:54:00,68.5,25.9,25.34,WNW,292,18.8,19.2,20,0.00,,---,0.00,VWS V14.01,2013-02-04 20:54:00,
2013-02-04 14:59:00,67.8,27.6,25.34,WNW,292,17.7,23.5,22,0.00,,---,0.00,VWS V14.01,2013-02-04 20:59:00,
2013-02-04 15:04:00,67.8,25.3,25.31,West,270,13.6,13.6,20,0.00,,---,0.00,VWS V14.01,2013-02-04 21:04:00,
2013-02-04 15:09:00,68.7,26.1,25.31,WNW,292,16.8,16.8,20,0.00,,---,0.00,VWS V14.01,2013-02-04 21:09:00,
2013-02-04 15:14:00,67.1,24.7,25.31,West,270,22.2,22.2,20,0.00,,---,0.00,VWS V14.01,2013-02-04 21:14:00,
2013-02-04 15:19:00,67.1,24.7,25.31,WSW,248,26.2,26.2,20,0.00,,---,0.00,VWS V14.01,2013-02-04 21:19:00,
2013-02-04 15:24:00,67.8,25.3,25.31,West,270,12.8,12.8,20,0.00,,---,0.00,VWS V14.01,2013-02-04 21:24:00,
2013-02-04 15:29:00,66.6,24.3,25.31,WSW,248,26.6,32.9,20,0.00,,---,0.00,VWS V14.01,2013-02-04 21:29:00,
2013-02-04 15:34:00,67.3,24.9,25.31,West,270,20.6,20.6,20,0.00,,---,0.00,VWS V14.01,2013-02-04 21:34:00,
2013-02-04 15:39:00,66.7,24.4,25.31,West,270,22.4,22.4,20,0.00,,---,0.00,VWS V14.01,2013-02-04 21:39:00,
2013-02-04 15:44:00,66.4,24.1,25.31,West,270,30.4,30.4,20,0.00,,---,0.00,VWS V14.01,2013-02-04 21:44:00,
2013-02-04 15:49:00,66.2,24.0,25.31,West,270,25.1,25.1,20,0.00,,---,0.00,VWS V14.01,2013-02-04 21:49:00,
2013-02-04 15:54:00,66.7,24.4,25.31,West,270,17.7,17.7,20,0.00,,---,0.00,VWS V14.01,2013-02-04 21:54:00,
2013-02-04 15:59:00,67.1,24.7,25.31,WSW,248,23.5,23.7,20,0.00,,---,0.00,VWS V14.01,2013-02-04 21:59:00,
2013-02-04 16:04:00,65.8,23.7,25.31,West,270,19.0,19.0,20,0.00,,---,0.00,VWS V14.01,2013-02-04 22:04:00,
2013-02-04 16:09:00,65.5,23.4,25.31,West,270,15.2,15.2,20,0.00,,---,0.00,VWS V14.01,2013-02-04 22:09:00,
2013-02-04 16:14:00,65.8,23.7,25.31,WNW,292,15.2,25.3,20,0.00,,---,0.00,VWS V14.01,2013-02-04 22:14:00,
2013-02-04 16:19:00,66.0,23.8,25.31,WSW,248,19.5,19.5,20,0.00,,---,0.00,VWS V14.01,2013-02-04 22:19:00,
2013-02-04 16:24:00,66.9,24.6,25.31,WNW,292,13.0,13.6,20,0.00,,---,0.00,VWS V14.01,2013-02-04 22:24:00,
2013-02-04 16:29:00,66.2,24.0,25.31,WSW,248,15.2,19.5,20,0.00,,---,0.00,VWS V14.01,2013-02-04 22:29:00,
2013-02-04 16:34:00,65.5,23.4,25.31,WSW,248,19.7,22.6,20,0.00,,---,0.00,VWS V14.01,2013-02-04 22:34:00,
2013-02-04 16:39:00,65.3,23.2,25.31,WSW,248,19.5,22.4,20,0.00,,---,0.00,VWS V14.01,2013-02-04 22:39:00,
2013-02-04 16:44:00,64.6,22.6,25.31,WNW,292,13.2,15.2,20,0.00,,---,0.00,VWS V14.01,2013-02-04 22:44:00,
2013-02-04 16:49:00,64.4,22.5,25.31,WSW,248,11.4,11.4,20,0.00,,---,0.00,VWS V14.01,2013-02-04 22:49:00,
2013-02-04 16:54:00,64.2,25.7,25.31,West,270,16.3,16.3,23,0.00,,---,0.00,VWS V14.01,2013-02-04 22:54:00,
2013-02-04 16:59:00,63.9,25.4,25.31,West,270,10.1,13.2,23,0.00,,---,0.00,VWS V14.01,2013-02-04 22:59:00,
2013-02-04 17:04:00,63.5,25.1,25.34,West,270,15.4,15.9,23,0.00,,---,0.00,VWS V14.01,2013-02-04 23:04:00,
2013-02-04 17:09:00,63.3,24.9,25.34,WSW,248,17.7,17.7,23,0.00,,---,0.00,VWS V14.01,2013-02-04 23:09:00,
2013-02-04 17:14:00,63.1,24.8,25.34,West,270,14.5,14.8,23,0.00,,---,0.00,VWS V14.01,2013-02-04 23:14:00,
2013-02-04 17:19:00,63.1,24.8,25.34,West,270,8.1,10.3,23,0.00,,---,0.00,VWS V14.01,2013-02-04 23:19:00,
2013-02-04 17:24:00,63.1,24.8,25.34,West,270,22.6,22.6,23,0.00,,---,0.00,VWS V14.01,2013-02-04 23:24:00,
2013-02-04 17:29:00,63.1,24.8,25.34,West,270,22.6,22.6,23,0.00,,---,0.00,VWS V14.01,2013-02-04 23:29:00,
2013-02-04 17:34:00,63.1,24.8,25.34,West,270,22.6,22.6,23,0.00,,---,0.00,VWS V14.01,2013-02-04 23:34:00,
2013-02-04 17:39:00,62.4,25.2,25.34,West,270,19.9,19.9,24,0.00,,---,0.00,VWS V14.01,2013-02-04 23:39:00,
2013-02-04 17:44:00,62.2,25.0,25.34,WSW,248,21.3,21.3,24,0.00,,---,0.00,VWS V14.01,2013-02-04 23:44:00,
2013-02-04 17:49:00,62.1,24.9,25.34,West,270,17.7,17.7,24,0.00,,---,0.00,VWS V14.01,2013-02-04 23:49:00,
2013-02-04 17:54:00,61.9,24.7,25.34,WSW,248,17.2,17.2,24,0.00,,---,0.00,VWS V14.01,2013-02-04 23:54:00,
2013-02-04 17:59:00,61.7,24.6,25.34,WSW,248,17.5,17.7,24,0.00,,---,0.00,VWS V14.01,2013-02-04 23:59:00,
2013-02-04 18:04:00,61.7,24.6,25.37,WSW,248,15.4,17.0,24,0.00,,---,0.00,VWS V14.01,2013-02-05 00:04:00,
2013-02-04 18:09:00,61.3,24.3,25.37,WSW,248,14.8,17.2,24,0.00,,---,0.00,VWS V14.01,2013-02-05 00:09:00,
2013-02-04 18:14:00,61.2,24.1,25.37,West,270,13.0,15.4,24,0.00,,---,0.00,VWS V14.01,2013-02-05 00:14:00,
2013-02-04 18:19:00,61.0,24.0,25.37,WSW,248,12.1,14.3,24,0.00,,---,0.00,VWS V14.01,2013-02-05 00:19:00,
2013-02-04 18:24:00,60.6,23.6,25.37,West,270,10.5,10.5,24,0.00,,---,0.00,VWS V14.01,2013-02-05 00:24:00,
2013-02-04 18:29:00,60.4,23.5,25.37,WSW,248,18.1,18.1,24,0.00,,---,0.00,VWS V14.01,2013-02-05 00:29:00,
2013-02-04 18:34:00,60.4,23.5,25.37,WSW,248,15.4,19.9,24,0.00,,---,0.00,VWS V14.01,2013-02-05 00:34:00,
2013-02-04 18:39:00,60.4,23.5,25.37,WSW,248,13.2,17.0,24,0.00,,---,0.00,VWS V14.01,2013-02-05 00:39:00,
2013-02-04 18:44:00,60.1,23.2,25.37,West,270,13.2,14.1,24,0.00,,---,0.00,VWS V14.01,2013-02-05 00:44:00,
2013-02-04 18:49:00,60.1,23.2,25.37,West,270,9.8,12.8,24,0.00,,---,0.00,VWS V14.01,2013-02-05 00:49:00,
2013-02-04 18:54:00,59.5,22.7,25.37,WSW,248,12.1,13.2,24,0.00,,---,0.00,VWS V14.01,2013-02-05 00:54:00,
2013-02-04 18:59:00,59.4,22.6,25.37,West,270,10.1,12.1,24,0.00,,---,0.00,VWS V14.01,2013-02-05 00:59:00,
2013-02-04 19:04:00,59.2,22.4,25.37,WSW,248,8.7,10.1,24,0.00,,---,0.00,VWS V14.01,2013-02-05 01:04:00,
2013-02-04 19:09:00,59.0,23.2,25.37,WSW,248,8.1,8.5,25,0.00,,---,0.00,VWS V14.01,2013-02-05 01:09:00,
2013-02-04 19:14:00,58.5,22.8,25.37,SW,225,6.5,7.6,25,0.00,,---,0.00,VWS V14.01,2013-02-05 01:14:00,
2013-02-04 19:19:00,58.1,22.5,25.37,WSW,248,7.8,7.8,25,0.00,,---,0.00,VWS V14.01,2013-02-05 01:19:00,
2013-02-04 19:24:00,58.1,22.5,25.37,WSW,248,6.5,7.8,25,0.00,,---,0.00,VWS V14.01,2013-02-05 01:24:00,
2013-02-04 19:29:00,57.7,22.2,25.37,WSW,248,5.6,5.6,25,0.00,,---,0.00,VWS V14.01,2013-02-05 01:29:00,
2013-02-04 19:34:00,57.6,22.0,25.37,West,270,6.0,6.0,25,0.00,,---,0.00,VWS V14.01,2013-02-05 01:34:00,
2013-02-04 19:39:00,57.2,21.7,25.37,West,270,6.5,6.5,25,0.00,,---,0.00,VWS V14.01,2013-02-05 01:39:00,
2013-02-04 19:44:00,57.0,22.5,25.37,WNW,292,3.8,4.3,26,0.00,,---,0.00,VWS V14.01,2013-02-05 01:44:00,
2013-02-04 19:49:00,56.8,22.3,25.39,West,270,4.0,4.9,26,0.00,,---,0.00,VWS V14.01,2013-02-05 01:49:00,
2013-02-04 19:54:00,56.8,22.3,25.39,West,270,4.3,4.5,26,0.00,,---,0.00,VWS V14.01,2013-02-05 01:54:00,
2013-02-04 19:59:00,56.8,22.3,25.39,West,270,4.9,4.9,26,0.00,,---,0.00,VWS V14.01,2013-02-05 01:59:00,
2013-02-04 20:04:00,56.8,22.3,25.34,West,270,6.3,6.3,26,0.00,,---,0.00,VWS V14.01,2013-02-05 02:04:00,
2013-02-04 20:09:00,56.8,22.3,25.34,WSW,248,4.7,4.9,26,0.00,,---,0.00,VWS V14.01,2013-02-05 02:09:00,
2013-02-04 20:14:00,56.1,21.7,25.34,West,270,4.3,4.3,26,0.00,,---,0.00,VWS V14.01,2013-02-05 02:14:00,
2013-02-04 20:19:00,55.2,21.0,25.37,East,90,3.6,4.9,26,0.00,,---,0.00,VWS V14.01,2013-02-05 02:19:00,
2013-02-04 20:24:00,54.7,20.5,25.37,ENE,68,4.0,4.7,26,0.00,,---,0.00,VWS V14.01,2013-02-05 02:24:00,
2013-02-04 20:29:00,54.3,20.2,25.37,ENE,68,4.5,6.5,26,0.00,,---,0.00,VWS V14.01,2013-02-05 02:29:00,
2013-02-04 20:34:00,54.1,20.0,25.37,ESE,112,3.8,5.4,26,0.00,,---,0.00,VWS V14.01,2013-02-05 02:34:00,
2013-02-04 20:39:00,54.0,19.9,25.37,ESE,112,5.6,6.3,26,0.00,,---,0.00,VWS V14.01,2013-02-05 02:39:00,
2013-02-04 20:44:00,53.8,19.7,25.37,ESE,112,5.6,5.6,26,0.00,,---,0.00,VWS V14.01,2013-02-05 02:44:00,
2013-02-04 20:49:00,53.4,19.4,25.39,East,90,6.0,6.0,26,0.00,,---,0.00,VWS V14.01,2013-02-05 02:49:00,
2013-02-04 20:54:00,53.1,19.1,25.39,ESE,112,4.0,4.0,26,0.00,,---,0.00,VWS V14.01,2013-02-05 02:54:00,
2013-02-04 20:59:00,52.0,18.2,25.39,ESE,112,5.6,5.6,26,0.00,,---,0.00,VWS V14.01,2013-02-05 02:59:00,
2013-02-04 21:04:00,51.6,17.9,25.37,ESE,112,4.9,4.9,26,0.00,,---,0.00,VWS V14.01,2013-02-05 03:04:00,
2013-02-04 21:09:00,51.3,17.6,25.37,ESE,112,5.4,5.4,26,0.00,,---,0.00,VWS V14.01,2013-02-05 03:09:00,
2013-02-04 21:14:00,51.1,17.4,25.37,ESE,112,4.3,4.3,26,0.00,,---,0.00,VWS V14.01,2013-02-05 03:14:00,
2013-02-04 21:19:00,50.5,17.8,25.37,ESE,112,4.7,5.6,27,0.00,,---,0.00,VWS V14.01,2013-02-05 03:19:00,
2013-02-04 21:24:00,50.4,17.7,25.37,SE,135,4.9,4.9,27,0.00,,---,0.00,VWS V14.01,2013-02-05 03:24:00,
2013-02-04 21:29:00,50.2,16.6,25.37,SE,135,2.9,3.4,26,0.00,,---,0.00,VWS V14.01,2013-02-05 03:29:00,
2013-02-04 21:34:00,50.2,16.6,25.37,SE,135,3.8,4.9,26,0.00,,---,0.00,VWS V14.01,2013-02-05 03:34:00,
2013-02-04 21:39:00,50.2,16.6,25.37,ESE,112,3.6,4.9,26,0.00,,---,0.00,VWS V14.01,2013-02-05 03:39:00,
2013-02-04 21:44:00,50.2,16.6,25.37,SSE,158,4.9,4.9,26,0.00,,---,0.00,VWS V14.01,2013-02-05 03:44:00,
2013-02-04 21:49:00,50.2,16.6,25.39,ESE,112,5.4,5.8,26,0.00,,---,0.00,VWS V14.01,2013-02-05 03:49:00,
2013-02-04 21:54:00,50.4,16.8,25.39,SE,135,5.4,5.6,26,0.00,,---,0.00,VWS V14.01,2013-02-05 03:54:00,
2013-02-04 21:59:00,50.5,17.0,25.39,SSE,158,5.4,5.4,26,0.00,,---,0.00,VWS V14.01,2013-02-05 03:59:00,
2013-02-04 22:04:00,50.7,17.1,25.39,SSE,158,4.0,4.0,26,0.00,,---,0.00,VWS V14.01,2013-02-05 04:04:00,
2013-02-04 22:09:00,51.1,17.4,25.39,SSE,158,4.0,4.0,26,0.00,,---,0.00,VWS V14.01,2013-02-05 04:09:00,
2013-02-04 22:14:00,51.1,17.4,25.39,SSE,158,3.8,4.3,26,0.00,,---,0.00,VWS V14.01,2013-02-05 04:14:00,
2013-02-04 22:19:00,51.4,17.7,25.39,SSE,158,4.9,4.9,26,0.00,,---,0.00,VWS V14.01,2013-02-05 04:19:00,
2013-02-04 22:24:00,51.4,17.7,25.39,SSE,158,4.3,4.7,26,0.00,,---,0.00,VWS V14.01,2013-02-05 04:24:00,
2013-02-04 22:29:00,51.6,17.9,25.39,SE,135,3.8,3.8,26,0.00,,---,0.00,VWS V14.01,2013-02-05 04:29:00,
2013-02-04 22:34:00,51.6,17.9,25.42,ENE,68,2.5,2.7,26,0.00,,---,0.00,VWS V14.01,2013-02-05 04:34:00,
2013-02-04 22:39:00,50.4,16.8,25.42,SE,135,2.5,2.9,26,0.00,,---,0.00,VWS V14.01,2013-02-05 04:39:00,
2013-02-04 22:44:00,50.4,16.8,25.42,SE,135,3.1,3.1,26,0.00,,---,0.00,VWS V14.01,2013-02-05 04:44:00,
2013-02-04 22:49:00,50.4,16.8,25.42,SE,135,3.1,3.1,26,0.00,,---,0.00,VWS V14.01,2013-02-05 04:49:00,
2013-02-04 22:54:00,51.1,17.4,25.42,SSE,158,3.4,3.4,26,0.00,,---,0.00,VWS V14.01,2013-02-05 04:54:00,
2013-02-04 22:59:00,49.5,16.0,25.42,South,180,2.0,2.0,26,0.00,,---,0.00,VWS V14.01,2013-02-05 04:59:00,
2013-02-04 23:00:00,49.5,16.0,25.42,South,180,2.0,2.0,26,0.00,,---,0.00,VWS V14.01,2013-02-05 05:00:00,
2013-02-04 23:05:00,50.0,16.5,25.42,SSE,158,3.6,3.6,26,0.00,,---,0.00,VWS V14.01,2013-02-05 05:05:00,
2013-02-04 23:10:00,50.0,16.5,25.42,SE,135,3.1,3.1,26,0.00,,---,0.00,VWS V14.01,2013-02-05 05:10:00,
2013-02-04 23:15:00,50.5,17.0,25.42,SSE,158,2.9,2.9,26,0.00,,---,0.00,VWS V14.01,2013-02-05 05:15:00,
2013-02-04 23:20:00,50.9,17.2,25.42,SE,135,2.2,2.2,26,0.00,,---,0.00,VWS V14.01,2013-02-05 05:20:00,
2013-02-04 23:25:00,51.3,17.6,25.42,SE,135,3.6,3.6,26,0.00,,---,0.00,VWS V14.01,2013-02-05 05:25:00,
2013-02-04 23:30:00,51.4,17.7,25.42,SE,135,2.9,2.9,26,0.00,,---,0.00,VWS V14.01,2013-02-05 05:30:00,
2013-02-04 23:35:00,51.4,17.7,25.42,SE,135,2.2,2.2,26,0.00,,---,0.00,VWS V14.01,2013-02-05 05:35:00,
2013-02-04 23:40:00,51.4,17.7,25.42,SSE,158,2.9,2.9,26,0.00,,---,0.00,VWS V14.01,2013-02-05 05:40:00,
2013-02-04 23:45:00,51.4,17.7,25.42,SSE,158,3.1,3.1,26,0.00,,---,0.00,VWS V14.01,2013-02-05 05:45:00,
2013-02-04 23:50:00,51.3,17.6,25.42,SSE,158,2.5,2.5,26,0.00,,---,0.00,VWS V14.01,2013-02-05 05:50:00,
2013-02-04 23:55:00,50.2,16.6,25.42,South,180,1.3,1.3,26,0.00,,---,0.00,VWS V14.01,2013-02-05 05:55:00,